Location: Unspecified
(0.0000°N, 0.0000°E)
Time: 01:58:53
(UTC+00:00)

Kosmos-2195 - Visible Passes

Search period start: 28 February 2021 00:00
Search period end: 10 March 2021 00:00
Orbit: 955 x 1008 km, 82.9° (Epoch: 27 February)

Date Brightness Start Highest point End Pass type
(mag) Time Alt. Az. Time Alt. Az. Time Alt. Az.
28 Feb 8.4 03:35:43 10° ENE 03:37:22 11° E 03:39:00 10° ESE visible
28 Feb 5.6 05:16:29 10° NNW 05:22:34 53° W 05:28:38 10° S visible
01 Mar 7.4 03:59:20 10° NNE 04:04:34 28° E 04:09:44 10° SE visible
01 Mar 6.5 05:44:56 10° NW 05:49:44 23° W 05:54:32 10° SW visible
02 Mar 5.9 04:25:32 10° N 04:31:45 64° E 04:37:54 10° SSE visible
03 Mar 5.5 04:52:48 10° NNW 04:58:56 57° W 05:05:02 10° S visible
04 Mar 7.4 03:35:52 10° NNE 03:40:55 26° E 03:45:55 10° SE visible
04 Mar 6.4 05:21:08 10° NW 05:26:05 25° W 05:31:03 10° SW visible
05 Mar 5.9 04:01:57 10° N 04:08:06 59° E 04:14:12 10° SSE visible
06 Mar 5.4 04:31:55 28° NNW 04:35:16 62° W 04:41:24 10° S visible
07 Mar 7.4 03:16:57 24° E 03:17:16 24° E 03:22:03 10° SE visible
07 Mar 6.3 05:01:55 26° W 05:02:27 27° W 05:07:32 10° SSW visible
08 Mar 6.4 03:46:08 42° SE 03:46:08 42° SE 03:50:28 10° SSE visible
09 Mar 6.6 04:14:54 29° SSW 04:14:54 29° SSW 04:17:46 10° S visible
